Location: Beneden-Haastrecht
(52.0012°N, 4.7557°E)
Time: 10:55:37
(UTC+00:00)

USA 305 - Pass Details

Date: 24 October 2020
Orbit: 569 x 577 km, 54.0° (Epoch: 22 November)

Event Time Altitude Azimuth Distance (km) Brightness Sun altitude
Rises 17:37:25 0° 279° (W) 2,787 8.2 -11.4°
Reaches altitude 10° 17:39:42 10° 282° (WNW) 1,887 6.9 -11.7°
Maximum altitude 17:43:59 68° 6° (N) 621 3.0 -12.4°
Enters shadow 17:46:51 20° 86° (E) 1,344 4.1 -12.8°
